Regional Weather Roundup
Issued by NWS Kansas City/Pleasant Hill, MO

Home | Current Version | Previous Version | Graphics & Text | Print | Product List | Glossary Off
Versions: 1 2 3 4 5 6 7 8 9 10 11 12 13 14 15 16 17 18 19 20 21 22 23 24 25 26 27 28 29 30 31 32 33 34 35 36 37 38 39 40 41 42 43 44 45 46 47 48 49 50

000
ASUS43 KEAX 231010
RWREAX

WEATHER ROUNDUP FOR EASTERN KANSAS AND NORTHWEST MISSOURI
NATIONAL WEATHER SERVICE KANSAS CITY/PLEASANT HILL MO
500 AM CDT THU OCT 23 2014

KSZ040-057-103>105-MOZ028-029-037-043-231100-
...KANSAS CITY METROPOLITAN AREA...

CITY           SKY/WX    TMP DP  RH WIND       PRES   REMARKS
K.C. INTL      RAIN      57  56  96 S5        30.10F FOG
K.C. DOWNTOWN  LGT RAIN  60  55  83 CALM      30.12R
LEES SUMMIT    HVY RAIN  56  52  86 SW8       30.12S FOG
OLATHE - IXD   LGT RAIN  58  56  93 S3        30.13R
OLATHE - OJC   LGT RAIN  57  55  93 S6        30.12R
LAWRENCE       RAIN      60  58  92 SW3       30.12S FOG

$$

MOZ001>008-011>017-020>025-030>033-038>040-044>046-053-054-231100-
...NORTHERN AND CENTRAL MISSOURI...

CITY           SKY/WX    TMP DP  RH WIND       PRES   REMARKS
ST. JOSEPH     CLOUDY    58  58 100 CALM      30.08F
MOSBY          RAIN      54  54 100 CALM      30.12S
WHITEMAN AFB   MOCLDY    54  48  80 S7        30.12S
CLINTON        CLOUDY    55  48  76 CALM      30.15R
SEDALIA        CLOUDY    55  46  71 S10       30.15R
WARSAW         NOT AVBL
MARSHALL       CLOUDY    54  48  82 SE3       30.14S
CHILLICOTHE      N/A     54  48  80 CALM      30.13R
MOBERLY        MOCLDY    50  41  71 S6        30.15S
KIRKSVILLE     CLOUDY    48  44  86 S7        30.13F

$$

MOZ041-047>049-056>058-063>065-088>090-097-231100-
...EASTERN AND SOUTHERN MISSOURI...

CITY           SKY/WX    TMP DP  RH WIND       PRES   REMARKS
ST. LOUIS INTL MOCLDY    46  40  79 CALM      30.21R
SPIRIT OF STL  PTCLDY    37  36  96 CALM      30.19F
COLUMBIA       MOCLDY    46  42  86 SE8       30.16S
JEFFERSON CITY MOCLDY    43  40  89 SE5       30.18S
MEXICO         CLOUDY    46  46 100 S6        30.16F
HANNIBAL       MOCLDY    48  39  71 S7        30.16S
ROLLA          PTCLDY    42  38  85 S7        30.17S
LEBANON        CLOUDY    48  43  81 S7        30.18S
OSAGE BEACH    MOCLDY    46  41  81 SE6       30.17S
SPRINGFIELD    CLOUDY    53  43  68 SE14      30.13F
BRANSON        CLOUDY    50  45  81 SE5       30.18S
NEVADA         CLOUDY    55  50  82 S3        30.14S
JOPLIN         CLOUDY    57  51  80 S8        30.14S
WEST PLAINS    PTCLDY    37  35  92 CALM      30.20S

$$

IAZ060-094-KSZ022-034>040-054-083-096-NEZ052-066-093-231100-
...KANSAS...SOUTHEAST NEBRASKA AND IOWA...

CITY           SKY/WX    TMP DP  RH WIND       PRES   REMARKS
TOPEKA         HVY RAIN  62  61  96 SE13      30.10F FOG
MANHATTAN      CLOUDY    62  60  93 S5        30.05F
EMPORIA        CLOUDY    61  60  97 S10       30.07F
CHANUTE        LGT RAIN  60  58  92 SE6       30.11S
WICHITA        CLOUDY    62  58  86 S9        30.08S
OMAHA          CLOUDY    62  59  90 S6        30.03S
LINCOLN        CLOUDY    60  58  92 CALM      30.05R
FALLS CITY     CLOUDY    61  60  97 S9        30.05F
LAMONI         CLOUDY    53  47  79 S9        30.08S
DES MOINES     CLOUDY    53  49  86 S12       30.04F

$$




USA.gov is the U.S. government's official web portal to all federal, state and local government web resources and services.